www.pogodaiklimat.ru
ПОГОДА в Рощино
Время
(UTC), дата
15 27.07
18 27.07
21 27.07
00 28.07
03 28.07
06 28.07
09 28.07
12 28.07
15 28.07
18 28.07
21 28.07
00 29.07
03 29.07
06 29.07
09 29.07
12 29.07
15 29.07
18 29.07
21 29.07
00 30.07
03 30.07
06 30.07
09 30.07
12 30.07
15 30.07
18 30.07
21 30.07
00 31.07
03 31.07
06 31.07
09 31.07
12 31.07
15 31.07
18 31.07
21 31.07
00 1.08
03 1.08
06 1.08
09 1.08
12 1.08
15 1.08
18 1.08
21 1.08
00 2.08
03 2.08
06 2.08
09 2.08
12 2.08
15 2.08
18 2.08
21 2.08
00 3.08
03 3.08
06 3.08
09 3.08
Ветер
(напр.,м/с)
Видим. Явления Облачность Т
(С)
Тd
(С)
f
(%)
Тe
(С)
Тes
(С)
Комфортность P
(гПа)
Po
(гПа)
Тmin
(С)
Tmax
(С)
R
(мм)
R24
(мм)
S
(см)
В 6-10
{13}
10 км 9/0
[Ac As Ci]
+30.8 +9.0 26 +30 +30 жарко 1011.2 1000.7 +35.6
В 1
{10}
10 км гроза, ливневой дождь 10/10 600 м
[Cb cap]
+25.1 +16.5 59 +29 +29 душно 1014.4 1003.6
В 1 10 км {гроза, ливн. дождь} 4/4 600 м
[Sc diur, vesp]
+22.9 +15.9 65 +27 +27 душно 1013.8 1002.9
штиль 0 10 км {гроза, ливн. дождь} ясно +19.5 +15.4 77 +21 +21 комфорт 1012.7 1001.7
В 2 10 км 1/0
[Ac As]
+22.1 +16.1 69 +26 +27 душно 1012.5 1001.7 +19.3
В 4
{10}
10 км 3/0
[Ci fib]
+29.3 +15.4 43 +32 +39 душно 1012.5 1001.9
В 5-11
{11}
10 км 3/0
[Ac As Ci fib]
+33.8 +7.5 20 +32 +40 жарко 1011.1 1000.6
В 6-12
{15}
4000 м пыльная буря 6/0
[Ac trans Ci fib]
+33.8 +7.4 20 +32 +35 жарко 1010.2 999.7
В 5-11
{14}
10 км {метель} ясно +30.4 +8.1 25 +30 +30 жарко 1009.8 999.2 +34.3
В 5-12
{13}
10 км гроза без осадков 9/8 600 м
[Cb calv Ac cast Ci fib]
+25.6 +12.5 44 +27 +27 жарко 1010.4 999.6
З 3
{12}
10 км гроза без осадков {ливн. дождь} 10/8 600 м
[Cb calv Ac und]
+22.1 +16.6 71 +26 +26 душно 1014.1 1003.2
СВ 1
{11}
10 км {гроза, ливн. дождь} 8/8 600 м
[Sc diur, vesp Ac As]
+21.4 +17.8 80 +26 +26 душно 1012.1 1001.2
СВ 1 10 км 10/3 600 м
[Sc diur, vesp Ac As]
+21.9 +18.0 79 +27 +27 душно 1012.0 1001.2 +19.5 3
В 3 10 км 10/0
[Ac As]
+24.9 +17.5 63 +29 +32 душно 1013.5 1002.7
В 2 10 км 10/6 600 м
[Cb cap Ac As]
+27.2 +17.6 56 +31 +34 душно 1014.0 1003.3
В 2 10 км 9/6 600 м
[Cb cap Ac cast]
+28.9 +13.4 39 +31 +33 жарко 1013.3 1002.6
Ю 1 10 км в посл. час гроза 9/8 600 м
[Cb cap Ac cast]
+25.7 +17.3 60 +30 +30 душно 1014.2 1003.5 +29.6
штиль 0 10 км {гроза} 9/6 600 м
[Cb cap Ac cast]
+22.9 +18.3 75 +29 +29 очень
душно
1016.3 1005.4
штиль 0 10 км 3/0
[Ac trans]
+20.1 +16.3 79 +23 +23 комфорт 1016.2 1005.2
штиль 0 4000 м дымка ясно +17.8 +15.8 88 +18 +18 1016.7 1005.6
штиль 0 4000 м дымка ясно +19.4 +16.8 85 +21 +23 комфорт 1017.6 1006.6 +16.8
В 1 10 км ясно +29.5 +12.0 34 +30 +43 жарко 1017.7 1007.0
ЮВ 3 10 км ясно +32.7 +5.6 18 +30 +45 жарко 1016.9 1006.3
СВ 2 10 км ясно +34.4 +5.0 16 +32 +43 жарко 1015.6 1005.1
ЮВ 1 10 км ясно +32.3 +5.4 19 +30 +31 жарко 1014.6 1004.0 +34.5
штиль 0 10 км ясно +25.0 +7.5 33 +25 +25 комфорт 1015.9 1005.1
штиль 0 10 км ясно +21.3 +9.1 46 +23 +23 комфорт 1015.7 1004.7
штиль 0 10 км ясно +16.7 +10.2 65 +17 +17 1014.9 1003.7
штиль 0 10 км ясно +19.1 +11.6 62 +20 +21 1014.0 1003.0 +15.0
В 3 10 км ясно +29.1 +10.3 31 +29 +38 жарко 1012.7 1002.1
В 2 10 км ясно +33.4 +7.7 20 +32 +49 жарко 1010.9 1000.4
Ю 1 10 км ясно +36.0 +4.2 14 +33 +46 жарко 1008.2 997.8
В 4
{11}
10 км ясно +31.8 +10.4 27 +32 +32 жарко 1007.4 996.9 +37.1
В 2
{10}
10 км 4/0
[Ac cast]
+25.8 +15.1 52 +29 +29 душно 1008.3 997.5
В 1 10 км 8/0
[Ac cast]
+22.3 +16.3 69 +27 +27 душно 1007.2 996.4
штиль 0 10 км 3/0
[Ac cast]
+20.0 +16.6 81 +22 +22 комфорт 1005.2 994.4
штиль 0 10 км 6/0
[Ac cast]
+21.0 +17.1 78 +25 +25 комфорт 1004.2 993.4 +19.5
ЮЗ 1 10 км 1/0
[Ci fib]
+29.6 +12.1 34 +30 +43 жарко 1002.5 992.0
СЗ 1 10 км 6/0
[Ac trans Ci fib]
+35.2 +5.8 16 +33 +48 жарко 1001.5 991.2
штиль 0 10 км 6/4 1000 м
[Cu hum Ac cast Ci fib]
+37.9 +5.9 14 +35 +42 очень
жарко
1000.2 990.0
С 3
{11}
10 км 10/8 600 м
[Sc As op]
+31.0 +12.9 33 +32 +32 жарко 1001.5 991.1 +38.5
СЗ 1
{12}
10 км слаб. ливневой дождь {гроза} 10/10 600 м
[Cb calv]
+20.7 +17.4 81 +25 +25 комфорт 1006.5 995.7
З 1 10 км слаб. ливневой дождь 10/10 600 м
[Cb cap]
+19.9 +18.1 89 +24 +24 комфорт 1007.2 996.4
З 1 10 км {ливн. дождь} 10/10 600 м
[Sc diur, vesp]
+19.6 +17.9 90 +23 +23 комфорт 1007.2 996.3
З 1 10 км {ливн. дождь} 9/6 600 м
[Cb cap Ac trans]
+19.8 +18.5 92 +24 +24 комфорт 1007.6 996.8 +19.1 5
СЗ 1 10 км {ливн. дождь} 10/10 600 м
[Cb cap]
+21.2 +17.9 81 +25 +25 комфорт 1008.7 997.8
С 1 10 км 9/4 600 м
[Sc diur, vesp Ac As Ci fib]
+24.4 +16.7 62 +28 +35 душно 1008.8 998.0
С 1 10 км 9/8 600 м
[Cb cap Ac trans]
+26.0 +15.9 54 +29 +31 душно 1008.6 997.8
10 км слаб. ливневой дождь н/о +22.7 +18.9 79 +29 +29 очень
душно
1009.4 998.6 +26.1 0.6
штиль 0 10 км слаб. ливневой дождь 10/10 600 м
[Cb cap]
+20.3 +19.0 92 +24 +24 комфорт 1009.7 998.8
З 1 4000 м слаб. ливневой дождь 10/10 600 м
[Cb cap]
+17.6 +16.9 96 +19 +19 1011.8 1000.7
ЮЗ 1 10 км слаб. ливневой дождь 10/10 600 м
[Cb cap]
+18.0 +17.2 95 +19 +19 1013.2 1002.2
ЮЗ 2 10 км слаб. ливневой дождь 8/6 600 м
[Cb cap Ac trans]
+17.9 +16.7 93 +18 +19 1013.6 1002.6 +17.4 22
З 2 10 км {ливн. дождь} 9/0
[Ac cast]
+21.5 +15.1 67 +25 +29 комфорт 1013.6 1002.6
СЗ 2 10 км 3/0
[Ac trans]
+27.1 +11.3 37 +28 +42 жарко 1013.5 1002.8
Местоположение метеостанции Рощино (Ставропольский край, Россия): широта 44.15 долгота 45.20 высота над уровнем моря 94 м.
В архиве по умолчанию представлена погода в Рощино за последнюю неделю. Архивные данные за месяц целиком и за предыдущие месяцы, начиная с января 2011 года, Вы можете получить, выбрав интересующий диапазон дат из раскрывающегося списка и нажав кнопку "Найти!".
*Определитесь, кто Вы:
Внимание! Время в таблицах - всемирное. Для получения местного времени необходимо прибавить поправку, которая равна 3 ч.
Смотрите также архив погоды в соседних городах и на ближайших метеорологических станциях:
Партнеры нашего сайта:      
Пояснения к столбцам:
  • Ветер - указаны скорость ветра в м/с - средняя за 10 мин, порывы в срок и между сроками (в фигурных скобках) и направление, откуда дует ветер: С - северный,
  • СВ - северо-восточный, В - восточный, ЮВ - юго-восточный, Ю - южный, ЮЗ - юго-западный, З - западный, СЗ - северо-западный.
  • Видимость - горизонтальная дальность видимости в метрах или километрах. При видимости от 1 до 10 км при отсутствии осадков обычно наблюдается дымка, при ухудшении видимости до 1 км и менее - туман. В сухую погоду видимость может ухудшаться дымом, пылью или мглою.
  • Явления - указаны атмосферные явления, наблюдавшиеся в срок или в последний час перед сроком; фигурными скобками обозначены явления, наблюдавшиеся между сроками (за 1-3 часа до срока); квадратными скобками обозначены град или гололедные отложения с указанием их диаметра в мм.
  • Облачность - указаны через наклонную черту общая и нижняя облачность в баллах и высота нижней границы облаков в метрах; квадратными скобками обозначены формы облаков: Ci - перистые, Cs - перисто-слоистые, Cc - перисто-кучевые, Ac - высококучевые, As - высокослоистые, Sc - слоисто-кучевые, Ns - слоисто-дождевые, Cu - кучевые, Cb - кучево-дождевые. Подробнее классификацию облаков см. в Атласе облаков (PDF).
  • T - Температура воздуха - температура, измеренная на высоте 2 м над землей.
  • Td - Температура точки росы - температура, при понижении до которой содержащийся в воздухе водяной пар достигнет насыщения.
  • f - Относительная влажность воздуха - влажноcть воздуха, измеренная на высоте 2 м над землей.
  • Te - Эффективная температура - температура, которую ощущает одетый по сезону человек в тени. Характеристика душности погоды. При расчете учитывается влияние влажности воздуха и скорости ветра на теплоощущения человека.
  • Tes - Эффективная температура на солнце - температура, которую ощущает человек, с поправкой на солнечный нагрев. Характеристика знойности погоды. Зависит от высоты солнца над горизонтом, облачности и скорости ветра. Ночью, в пасмурную погоду, а также при ветре 12 м/с и более поправка равна нулю.
  • P - Атмосферное давление - приведенное к уровню моря атмосферное давление.
  • Po - Атмосферное давление - измеренное на уровне метеостанции атмосферное давление.
  • Tmin - Минимальная температура - минимум температуры воздуха на высоте 2 м над землей.
  • Tmax - Максимальная температура - максимум температуры воздуха на высоте 2 м над землей.
  • R - Количество осадков - Количество выпавших осадков за период времени, мм. При наведении курсора мыши на число - период времени, за который выпало указанное количество осадков.
  • R24 - Количество осадков - Количество выпавших осадков за 24 часа, мм.
  • S - Снежный покров - Высота снежного покрова, см. При наведении курсора мыши на число - состояние снежного покрова и степень покрытия местности в баллах.